This is the latest recevied weather packets stored in our database for station/object W5DRO-13. If no packets are shown the sender has not sent any weather packets the latest 10 day(s).
| Time | Temp. | Humidity | Pressure | Rain* | Wind** | Luminosity | Snow |
|---|---|---|---|---|---|---|---|
| 1778089257 | 16.11° C | 54% | 1018.8 hPa | 0 mm | - | - | - |
| 1778088956 | 16.11° C | 52% | 1018.7 hPa | 0 mm | - | - | - |
| 1778088652 | 17.22° C | 50% | 1018.7 hPa | 0 mm | - | - | - |
| 1778088350 | 15.56° C | 54% | 1018.6 hPa | 0 mm | - | - | - |
| 1778088046 | 15.56° C | 53% | 1018.8 hPa | 0 mm | - | - | - |
| 1778087743 | 15.56° C | 55% | 1018.7 hPa | 0 mm | - | - | - |
| 1778087441 | 15.56° C | 52% | 1018.8 hPa | 0 mm | - | - | - |
| 1778087138 | 15.56° C | 54% | 1018.9 hPa | 0 mm | - | - | - |
| 1778086835 | 15° C | 54% | 1019 hPa | 0 mm | - | - | - |
| 1778086534 | 15.56° C | 54% | 1019 hPa | 0 mm | - | - | - |
| 1778086230 | 16.11° C | 52% | 1019 hPa | 0 mm | - | - | - |
| 1778085927 | 15.56° C | 51% | 1019 hPa | 0 mm | - | - | - |
| 1778085624 | 16.67° C | 51% | 1019 hPa | 0 mm | - | - | - |
| 1778085320 | 16.67° C | 51% | 1019.1 hPa | 0 mm | - | - | - |
| 1778085016 | 16.67° C | 51% | 1019.1 hPa | 0 mm | - | - | - |
| 1778084713 | 16.11° C | 55% | 1019.1 hPa | 0 mm | - | - | - |
| 1778084409 | 15° C | 54% | 1019 hPa | 0 mm | - | - | - |
| 1778084107 | 15° C | 56% | 1018.9 hPa | 0 mm | - | - | - |
| 1778083804 | 14.44° C | 54% | 1018.9 hPa | 0 mm | - | - | - |
| 1778083502 | 14.44° C | 55% | 1019 hPa | 0 mm | - | - | - |
| 1778083199 | 14.44° C | 55% | 1018.7 hPa | 0 mm | - | - | - |
| 1778082897 | 13.89° C | 58% | 1018.9 hPa | 0 mm | - | - | - |
| 1778081788 | 13.89° C | 58% | 1018.9 hPa | 0 mm | - | - | - |
| 1778081485 | 13.89° C | 60% | 1018.9 hPa | 0 mm | - | - | - |
| 1778081182 | 13.33° C | 61% | 1018.9 hPa | 0 mm | - | - | - |
* Rain latest hour (hover to see other rain measurements)
** Current wind speed in m/s (hover to see current wind gust speed)